"Pseudo-MPEC" for P10LfV8

Created 2019 Jan 23 11:18:21 UT using Find_Orb

Click here for an explanation of pseudo-MPECs

 
 Astrometry: 
     P10LfV8  C2019 01 09$PVjuEfAstrometrygcsX[,G*TOuv)f^I7[36yl5GKfX;;W[]@T;F51
     P10LfV8  C2019 01 095EuU]xm?1]rXs?)9QxTc3k]A-9\I,redacted;+ouQDQ4Bx-S[%1F51
     P10LfV8  C2019 01 09VmYGQ!.D7XPC'LtKclickWbGUJTjOfy(43[VZ:$1o2U-D`PK2$PiF51
     P10LfV8  C2019 01 09@ruH`v5ARp60'+C78AwhmcFwhere,3O^#[wSV9R55*_K;AV82IYcF51
     P10LfV8 KC2019 01 11%Sp\hPZA,448##CcN8*_Pbc%Sj+kH=JUg-CqAXU,JX0GA8for_%QH21
     P10LfV8 KC2019 01 11w_8yVcTwpQI7o[l!+$eSF$8%/\!IiU@oT?%qM#g$XMaJ(l)HEOL8H21
     P10LfV8 KC2019 01 11?T74c09Z]pHexplanation;vZB]_J*hr)=xAK4I5L@T'WBjg[J$,H21

Station data:
(F51) Pan-STARRS 1, Haleakala  (N20.707235 W156.255910)  US/Hawaii.
   Observers N. Primak, A. Schultz, S. Watters, J. Thiel, T. Goggia. Measurer
   PS1 Science Consortium. 1.8-m Ritchey-Chrétien + CCD.
(H21) Astronomical Research Observatory, Westfield  (N39.483057 W87.968270)
   US/Illinois. 0.76-m f/3.0 astrograph + CCD.

Orbital elements:  P10LfV8
   Perihelion 2018 Sep 20.680161 +/- 118 TT = 16:19:25 (JD 2458382.180161)
Epoch 2019 Jan 11.0 TT = JDT 2458494.5   Earth MOID: 0.6175   AutoNEOCP
M  34.58979278 +/- 45               (J2000 ecliptic)
n   0.30795799 +/- 0.196            Peri.   80.78032 +/- 90
a   2.17174279 +/- 0.921            Node   333.46346 +/- 7
e   0.3443375 +/- 0.218             Incl.   24.86578 +/- 12
P   3.20                   H 20.1   G  0.15   U 11.7  SR
q 1.42393018 +/- 0.427    Q 2.91955541 +/- 3.45
From 7 observations 2019 Jan. 9-11 (43.2 hr); mean residual 0".13
Residuals in arcseconds: 
190109 F51  .03-  .08+    190109 F51  .00   .11-    190111 H21  .29-  .10+    
190109 F51  .00   .15+    190111 H21  .11+  .18-    
190109 F51  .03+  .12-    190111 H21  .18+  .08+    

Ephemerides (geocentric):
Date (UTC) HH   RA              Dec         delta   r     elong  mag " sig PA
---- -- -- --  -------------   -----------  ------ ------ -----  --- ---- ---
2019 01 23 11  09 56 22.275   +38 00 08.29  .80497 1.7373 152.2 21.7 2309 158
2019 01 23 12  09 56 16.350   +37 59 39.69  .80498 1.7375 152.2 21.7 2325 158
2019 01 23 13  09 56 10.424   +37 59 11.04  .80499 1.7377 152.3 21.7 2342 158
2019 01 23 14  09 56 04.496   +37 58 42.35  .80500 1.7378 152.3 21.7 2359 158
2019 01 23 15  09 55 58.565   +37 58 13.60  .80502 1.7380 152.4 21.7 2375 158
2019 01 23 16  09 55 52.633   +37 57 44.82  .80503 1.7382 152.4 21.7 2392 158
2019 01 23 17  09 55 46.698   +37 57 15.98  .80505 1.7383 152.4 21.7 2409 158
2019 01 23 18  09 55 40.762   +37 56 47.10  .80506 1.7385 152.5 21.7 2426 158
2019 01 23 19  09 55 34.823   +37 56 18.17  .80508 1.7387 152.5 21.7 2443 158
2019 01 23 20  09 55 28.882   +37 55 49.19  .80509 1.7388 152.6 21.7 2460 158
2019 01 23 21  09 55 22.940   +37 55 20.17  .80511 1.7390 152.6 21.7 2477 158
2019 01 23 22  09 55 16.995   +37 54 51.10  .80512 1.7392 152.7 21.7 2494 158
2019 01 23 23  09 55 11.048   +37 54 21.98  .80514 1.7394 152.7 21.7 2512 158
2019 01 24 00  09 55 05.100   +37 53 52.81  .80516 1.7395 152.7 21.7 2529 158
2019 01 24 01  09 54 59.149   +37 53 23.60  .80518 1.7397 152.8 21.7 2546 158
2019 01 24 02  09 54 53.197   +37 52 54.34  .80519 1.7399 152.8 21.7 2564 158
2019 01 24 03  09 54 47.243   +37 52 25.03  .80521 1.7400 152.9 21.7 2581 158
2019 01 24 04  09 54 41.287   +37 51 55.67  .80523 1.7402 152.9 21.7 2599 158
2019 01 24 05  09 54 35.329   +37 51 26.27  .80525 1.7404 152.9 21.7 2617 158
2019 01 24 06  09 54 29.369   +37 50 56.82  .80527 1.7406 153.0 21.7 2635 158
2019 01 24 07  09 54 23.407   +37 50 27.33  .80529 1.7407 153.0 21.7 2652 158
2019 01 24 08  09 54 17.444   +37 49 57.78  .80531 1.7409 153.1 21.7 2670 158
2019 01 24 09  09 54 11.479   +37 49 28.19  .80533 1.7411 153.1 21.7 2688 158
2019 01 24 10  09 54 05.512   +37 48 58.55  .80535 1.7412 153.1 21.7 2706 158
2019 01 24 11  09 53 59.543   +37 48 28.86  .80537 1.7414 153.2 21.7 2725 158
2019 01 24 12  09 53 53.573   +37 47 59.13  .80540 1.7416 153.2 21.7 2743 158
2019 01 24 13  09 53 47.600   +37 47 29.35  .80542 1.7417 153.3 21.7 2761 158
2019 01 24 14  09 53 41.627   +37 46 59.52  .80544 1.7419 153.3 21.7 2779 158
2019 01 24 15  09 53 35.651   +37 46 29.64  .80546 1.7421 153.3 21.7 2798 158
2019 01 24 16  09 53 29.674   +37 45 59.72  .80549 1.7423 153.4 21.7 2816 158
2019 01 24 17  09 53 23.695   +37 45 29.75  .80551 1.7424 153.4 21.7 2835 157
2019 01 24 18  09 53 17.715   +37 44 59.73  .80554 1.7426 153.5 21.7 2853 157
2019 01 24 19  09 53 11.733   +37 44 29.67  .80556 1.7428 153.5 21.7 2872 157
2019 01 24 20  09 53 05.749   +37 43 59.55  .80559 1.7429 153.5 21.7 2891 157
2019 01 24 21  09 52 59.764   +37 43 29.39  .80561 1.7431 153.6 21.7 2910 157
2019 01 24 22  09 52 53.777   +37 42 59.18  .80564 1.7433 153.6 21.7 2929 157
2019 01 24 23  09 52 47.789   +37 42 28.93  .80567 1.7435 153.7 21.7 2948 157
2019 01 25 00  09 52 41.799   +37 41 58.62  .80569 1.7436 153.7 21.7 2967 157
2019 01 25 01  09 52 35.808   +37 41 28.27  .80572 1.7438 153.7 21.7 2986 157
2019 01 25 02  09 52 29.815   +37 40 57.87  .80575 1.7440 153.8 21.7 3005 157
2019 01 25 03  09 52 23.820   +37 40 27.43  .80578 1.7441 153.8 21.7 3024 157
2019 01 25 04  09 52 17.825   +37 39 56.94  .80581 1.7443 153.9 21.7 3044 157
2019 01 25 05  09 52 11.828   +37 39 26.39  .80584 1.7445 153.9 21.7 3063 157
2019 01 25 06  09 52 05.829   +37 38 55.81  .80587 1.7447 153.9 21.7 3082 157
2019 01 25 07  09 51 59.829   +37 38 25.17  .80590 1.7448 154.0 21.7 3102 157
2019 01 25 08  09 51 53.828   +37 37 54.49  .80593 1.7450 154.0 21.7 3122 157
2019 01 25 09  09 51 47.825   +37 37 23.76  .80596 1.7452 154.1 21.7 3141 157
2019 01 25 10  09 51 41.821   +37 36 52.98  .80599 1.7453 154.1 21.7 3161 157